Regional Weather Roundup
Issued by NWS Cleveland, OH

Home | Current Version | Previous Version | Graphics & Text | Print | Product List | Glossary On
Versions: 1 2 3 4 5 6 7 8 9 10 11 12 13 14 15 16 17 18 19 20 21 22 23 24 25 26 27 28 29 30 31 32 33 34 35 36 37 38 39 40 41 42 43 44 45 46 47 48 49 50
000
ASUS41 KCLE 220212
RWRCLE
OHIO REGIONAL WEATHER ROUNDUP
NATIONAL WEATHER SERVICE WILMINGTON, OH
1000 PM EDT SAT APR 21 2018

NOTE: "FAIR" INDICATES FEW OR NO CLOUDS BELOW 12,000 FEET WITH NO
SIGNIFICANT WEATHER AND/OR OBSTRUCTIONS TO VISIBILITY.

OHZ001>008-015>018-024>027-034-035-043-044-220300-
   NORTHWEST OHIO

CITY           SKY/WX    TMP DP  RH WIND       PRES   REMARKS
DEFIANCE       FAIR      49  23  36 E8        30.40R
FINDLAY        FAIR      48  18  30 NE8       30.38R
TOLEDO EXPRESS FAIR      46  19  34 E5        30.40S
TOLEDO EXEC    FAIR      45  22  40 NE5       30.41S
LIMA           FAIR      47  24  40 NE8       30.38R
$$

OHZ009>014-019>023-028>033-038-089-220300-
   NORTHEAST OHIO

CITY           SKY/WX    TMP DP  RH WIND       PRES   REMARKS
CLE-HOPKINS    MOCLDY    40  33  76 N3        30.43R
CLE-LAKEFRONT  FAIR      40  34  79 NE3       30.40S
CUY CO. ARPT   MOCLDY    41  32  70 CALM      30.41S
LORAIN-ELYRIA  FAIR      39  24  55 NE7       30.41R
ASHTABULA      FAIR      37  31  78 CALM      30.41R
AKRON-CANTON   CLOUDY    47  28  47 NE7       30.37S
WOOSTER        MOCLDY    46  23  40 N6        30.39R
MANSFIELD      CLOUDY    46  20  35 N3        30.38R
YOUNGSTOWN     CLOUDY    45  27  49 NE8       30.38R
$$

OHZ042-051>053-060>062-070>072-077>081-220300-
  SOUTHWEST OHIO

CITY           SKY/WX    TMP DP  RH WIND       PRES   REMARKS
CINC-COVINGTON CLOUDY    54  21  27 NE9       30.33R
CINC-LUNKEN    FAIR      52  30  43 NE7       30.34R
HAMILTON       FAIR      52  31  44 CALM      30.35R
DAYTON         CLOUDY    48  27  44 NE8       30.37R
WRIGHT-PAT AFB CLOUDY    51  24  35 NE7       30.35R
DAYTON GENERAL FAIR      52  23  32 NE8       30.34R
WILMINGTON     FAIR      49  30  48 NE13      30.32S
$$

OHZ036-037-039>041-045>050-054>059-063>069-073>076-082>088-220300-
  CENTRAL AND SOUTHEAST OHIO

CITY           SKY/WX    TMP DP  RH WIND       PRES   REMARKS
COLUMBUS       CLOUDY    52  22  30 NE7       30.35R
OSU AIRPORT    FAIR      50  24  36 NE8       30.35S
BOLTON FIELD   MOCLDY    49  28  44 N7        30.36S
RICKENBACK AFB FAIR      51  24  35 NE7       30.34S
NEWARK         FAIR      52  23  32 VRB3      30.36R
MARION         CLOUDY    45  24  43 NE8       30.38S
LANCASTER      FAIR      51  29  42 N6        30.36R
ZANESVILLE     MOCLDY    52  24  33 NE5       30.35
NEW PHILLY     CLOUDY    48  30  49 CALM      30.37R
$$




USA.gov is the U.S. government's official web portal to all federal, state and local government web resources and services.